CAPELLA-1 (43791 NORAD) Tracking and Keplerian Element Data

This shows tracking and keplerian element data for the satellite.

Feedback or suggestion? Click here.




ElementValue
Catalog43791
NameCAPELLA-1
Epoch Orbit433
Epoch Day1.79073667
Epoch Year2019
RAAN75.6783
Inclination97.7653
Eccentricity0.0013416
Argument of Perigee169.5187
Mean Anonmoly190.6316
Mean Motion14.95499904
Decay Rate2.06E-05
L11 43791U 18099AK 19001.79073667 .00002060 00000-0 19099-3 0 9996
L22 43791 97.7653 75.6783 0013416 169.5187 190.6316 14.95499904 4331

Live tracking and technical data element details for CAPELLA-1 (NORAD 43791). CAPELLA-1 can be tracked NOW for your location showing map with azimuth and elevation plus other details from your city location.

Track the satellite on the map from your city or location and see movement details for azimuth, elevation, latitude, longitude, range, height, and movement on the map or in text.







IsCatalogInMostPopularTable: catalog: 43791, numindb: 115
Update: records affected: 1



GetName: 43791 CAPELLA-1

Hit Count: updated at: Tue, 17 Sep 2019 21:48:50 GMT